Weather History for Harvey, ND

Change the Weather History Date:

Wednesday, January 18, 2012

  Actual Average (KRUG) Record (KRUG)
Temperature  
Mean Temperature -6 °F -  
Max Temperature 1 °F 17 °F 43 °F (1972)
Min Temperature -14 °F -4 °F -36 °F (1950)
Degree Days  
Heating Degree Days 72    
Moisture  
Dew Point -12 °F    
Average Humidity 75    
Maximum Humidity 92    
Minimum Humidity 64    
Precipitation  
Precipitation 0.20 in - - ()
Sea Level Pressure  
Sea Level Pressure 29.89 in    
Wind  
Wind Speed 16 mph (North)    
Max Wind Speed 24 mph    
Max Gust Speed 31 mph    
Visibility 8 miles    
Events Snow    
Averages and records for this station are not official NWS values.
T = Trace of Precipitation, MM = Missing Value Source: NWS Daily Summary

Daily Weather History Graph

Daily Weather History Graph

Search for Another Location

Airport:

Trip Planner

Search our weather history database for the weather conditions in past years. The results will help you decide how hot, cold, wet, or windy it might be!

Date:

Astronomy

Jan. 18, 2012 Rise Set
Actual Time 8:22 AM CST 5:18 PM CST
Civil Twilight 7:47 AM CST 5:53 PM CST
Nautical Twilight 7:09 AM CST 6:31 PM CST
Astronomical Twilight 6:32 AM CST 7:08 PM CST
Moon 3:55 AM CST (1/18) 12:55 PM CST (1/18)
Length of Visible Light 10h 05m
Length of Day
8h 56m
Waning Crescent, 24% of the Moon is Illuminated
Jan 18
Waning Crescent
Jan 23
New
Jan 30
First Quarter
Feb 7
Full
Feb 14
Last Quarter

Hourly Weather History & Observations

Time (CST) Temp. Windchill Dew Point Humidity Pressure Visibility Wind Dir Wind Speed Gust Speed Precip Events Conditions
12:15 AM 1.4 °F -18.8 °F -4.0 °F 78% 29.89 in 10.0 mi SE 17.3 mph - N/A   Partly Cloudy
12:35 AM 1.4 °F -18.2 °F -4.0 °F 78% 29.88 in 10.0 mi ESE 16.1 mph - N/A   Clear
12:55 AM 1.4 °F -18.8 °F -4.0 °F 78% 29.87 in 10.0 mi ESE 17.3 mph - N/A   Clear
1:15 AM 1.4 °F -18.2 °F -4.0 °F 78% 29.85 in 10.0 mi ESE 16.1 mph 19.6 mph N/A   Partly Cloudy
1:55 AM 1.4 °F -18.2 °F -4.0 °F 78% 29.83 in 10.0 mi ESE 16.1 mph 21.9 mph N/A   Partly Cloudy
2:15 AM -0.4 °F -21.2 °F -4.0 °F 85% 29.81 in 10.0 mi ESE 17.3 mph - N/A   Clear
2:35 AM -0.4 °F -19.2 °F -4.0 °F 85% 29.81 in 10.0 mi ESE 13.8 mph 21.9 mph N/A   Clear
2:55 AM -0.4 °F -17.6 °F -2.2 °F 92% 29.81 in 10.0 mi ESE 11.5 mph - N/A   Partly Cloudy
3:35 AM 1.4 °F -17.6 °F -2.2 °F 85% 29.80 in 10.0 mi ESE 15.0 mph - N/A Snow Light Snow
3:55 AM 1.4 °F -18.8 °F -2.2 °F 85% 29.77 in 3.0 mi ESE 17.3 mph - N/A Snow Light Snow
4:15 AM 1.4 °F -18.2 °F -2.2 °F 85% 29.77 in 6.0 mi ESE 16.1 mph - N/A   Overcast
4:35 AM 1.4 °F -16.9 °F -2.2 °F 85% 29.75 in 6.0 mi ESE 13.8 mph - N/A   Overcast
4:55 AM 1.4 °F -16.1 °F -2.2 °F 85% 29.74 in 10.0 mi ESE 12.7 mph - N/A   Overcast
5:15 AM 1.4 °F -15.3 °F -2.2 °F 85% 29.74 in 10.0 mi East 11.5 mph - N/A   Overcast
5:35 AM 1.4 °F -16.9 °F -2.2 °F 85% 29.72 in 6.0 mi ESE 13.8 mph - N/A Snow Light Snow
6:15 AM 1.4 °F -16.9 °F -2.2 °F 85% 29.72 in 3.0 mi East 13.8 mph - N/A Snow Light Snow
6:35 AM 1.4 °F -15.3 °F -2.2 °F 85% 29.74 in 6.0 mi ENE 11.5 mph - N/A Snow Light Snow
6:55 AM -0.4 °F -16.7 °F -2.2 °F 92% 29.74 in 10.0 mi ENE 10.4 mph - N/A   Overcast
7:15 AM -0.4 °F -17.6 °F -4.0 °F 85% 29.76 in 2.0 mi NE 11.5 mph - 0.02 in Snow Light Snow
7:35 AM -0.4 °F -19.9 °F -4.0 °F 85% 29.75 in 1.8 mi NE 15.0 mph - 0.09 in Snow Light Snow
7:55 AM -0.4 °F -20.5 °F -4.0 °F 85% 29.77 in 1.2 mi NE 16.1 mph - 0.19 in Snow Light Snow
8:15 AM -2.2 °F -23.5 °F -7.6 °F 78% 29.77 in 2.5 mi NNE 17.3 mph - N/A Snow Light Snow
8:35 AM -2.2 °F -24.1 °F -9.4 °F 71% 29.81 in 4.0 mi NNE 18.4 mph - 0.01 in Snow Light Snow
8:55 AM -4.0 °F -26.4 °F -9.4 °F 78% 29.83 in 1.5 mi North 18.4 mph - 0.01 in Snow Light Snow
9:15 AM -4.0 °F -27.6 °F -11.2 °F 71% 29.85 in 1.0 mi North 20.7 mph 24.2 mph N/A Snow Light Snow
9:35 AM -5.8 °F -28.8 °F -11.2 °F 77% 29.85 in 1.5 mi North 18.4 mph 26.5 mph N/A Snow Light Snow
9:55 AM -5.8 °F -28.8 °F -13.0 °F 71% 29.86 in 4.0 mi North 18.4 mph - N/A   Haze
10:15 AM -5.8 °F -27.5 °F -13.0 °F 71% 29.87 in 4.0 mi North 16.1 mph 23.0 mph N/A   Haze
10:35 AM -7.6 °F -30.5 °F -13.0 °F 77% 29.88 in 5.0 mi North 17.3 mph - N/A Snow Light Snow
10:55 AM -7.6 °F -30.5 °F -13.0 °F 77% 29.89 in 7.0 mi North 17.3 mph 21.9 mph N/A   Overcast
11:15 AM -5.8 °F -27.5 °F -13.0 °F 71% 29.92 in 9.0 mi NNW 16.1 mph 21.9 mph N/A   Overcast
11:35 AM -5.8 °F -27.5 °F -13.0 °F 71% 29.92 in 8.0 mi NNW 16.1 mph - N/A   Overcast
11:55 AM -5.8 °F -27.5 °F -13.0 °F 71% 29.91 in 10.0 mi NNW 16.1 mph 19.6 mph N/A   Scattered Clouds
12:15 PM -4.0 °F -26.4 °F -13.0 °F 65% 29.91 in 10.0 mi NNW 18.4 mph - N/A   Partly Cloudy
12:35 PM -7.6 °F -33.4 °F -13.0 °F 77% 29.93 in 1.8 mi NW 23.0 mph 28.8 mph N/A Snow Light Snow
12:55 PM -7.6 °F -33.9 °F -14.8 °F 71% 29.93 in 10.0 mi NW 24.2 mph 31.1 mph N/A   Scattered Clouds
1:35 PM -7.6 °F -31.7 °F -16.6 °F 65% 29.92 in 10.0 mi NNW 19.6 mph - N/A   Partly Cloudy
1:55 PM -7.6 °F -31.1 °F -16.6 °F 65% 29.92 in 10.0 mi NW 18.4 mph 24.2 mph N/A   Clear
2:15 PM -7.6 °F -32.9 °F -16.6 °F 65% 29.93 in 10.0 mi NW 21.9 mph 27.6 mph N/A   Clear
2:35 PM -7.6 °F -33.9 °F -16.6 °F 65% 29.93 in 7.0 mi NW 24.2 mph - N/A   Partly Cloudy
2:55 PM -9.4 °F -34.1 °F -16.6 °F 71% 29.95 in 10.0 mi NW 19.6 mph 28.8 mph N/A   Scattered Clouds
3:15 PM -9.4 °F -35.2 °F -18.4 °F 65% 29.96 in 10.0 mi NW 21.9 mph 26.5 mph N/A   Partly Cloudy
3:35 PM -9.4 °F -35.2 °F -18.4 °F 65% 29.96 in 10.0 mi NW 21.9 mph 27.6 mph N/A   Partly Cloudy
3:55 PM -9.4 °F -34.1 °F -18.4 °F 65% 29.95 in 10.0 mi NNW 19.6 mph - N/A   Scattered Clouds
4:15 PM -9.4 °F -34.7 °F -18.4 °F 65% 29.97 in 8.0 mi WNW 20.7 mph - N/A   Mostly Cloudy
4:35 PM -11.2 °F -34.4 °F -18.4 °F 70% 29.98 in 10.0 mi WNW 16.1 mph 20.7 mph N/A   Scattered Clouds
4:55 PM -11.2 °F -35.8 °F -20.2 °F 64% 29.99 in 10.0 mi WNW 18.4 mph - N/A   Partly Cloudy
5:15 PM -11.2 °F -35.8 °F -20.2 °F 64% 30.00 in 10.0 mi NW 18.4 mph 23.0 mph N/A   Clear
5:35 PM -11.2 °F -32.9 °F -20.2 °F 64% 30.00 in 10.0 mi WNW 13.8 mph 20.7 mph N/A   Clear
5:55 PM -13.0 °F -36.8 °F -20.2 °F 70% 30.00 in 10.0 mi WNW 16.1 mph - N/A   Clear
6:15 PM -13.0 °F -36.8 °F -20.2 °F 70% 30.01 in 10.0 mi WNW 16.1 mph 23.0 mph N/A   Partly Cloudy
6:35 PM -13.0 °F -36.0 °F -20.2 °F 70% 30.02 in 10.0 mi WNW 15.0 mph 19.6 mph N/A   Clear
6:55 PM -13.0 °F -36.0 °F -20.2 °F 70% 30.02 in 10.0 mi WNW 15.0 mph - N/A   Clear
7:15 PM -13.0 °F -35.2 °F -20.2 °F 70% 30.02 in 10.0 mi NW 13.8 mph - N/A   Clear
7:35 PM -13.0 °F -36.0 °F -22.0 °F 64% 30.02 in 10.0 mi NW 15.0 mph - N/A   Clear
7:55 PM -14.8 °F -37.5 °F -22.0 °F 70% 30.03 in 10.0 mi WNW 13.8 mph - N/A   Clear
8:15 PM -14.8 °F -39.1 °F -22.0 °F 70% 30.02 in 10.0 mi WNW 16.1 mph 20.7 mph N/A   Clear
8:35 PM -14.8 °F -38.3 °F -22.0 °F 70% 30.02 in 10.0 mi WNW 15.0 mph - N/A   Clear
8:55 PM -14.8 °F -38.3 °F -22.0 °F 70% 30.02 in 10.0 mi WNW 15.0 mph 19.6 mph N/A   Clear
9:15 PM -14.8 °F -35.6 °F -22.0 °F 70% 30.02 in 10.0 mi WNW 11.5 mph - N/A   Clear
9:35 PM -16.6 °F -37.9 °F -23.8 °F 70% 30.02 in 10.0 mi WNW 11.5 mph - N/A   Clear
10:15 PM -16.6 °F -37.9 °F -23.8 °F 70% 30.03 in 10.0 mi WNW 11.5 mph 16.1 mph N/A   Clear
10:35 PM -16.6 °F -36.8 °F -23.8 °F 70% 30.03 in 10.0 mi West 10.4 mph - N/A   Clear
10:55 PM -16.6 °F -35.7 °F -25.6 °F 64% 30.04 in 10.0 mi West 9.2 mph - N/A   Clear
11:15 PM -16.6 °F -37.9 °F -25.6 °F 64% 30.04 in 10.0 mi West 11.5 mph - N/A   Clear
11:35 PM -16.6 °F -39.8 °F -23.8 °F 70% 30.04 in 10.0 mi WNW 13.8 mph - N/A   Clear
11:55 PM -16.6 °F -38.9 °F -25.6 °F 64% 30.05 in 10.0 mi WNW 12.7 mph 18.4 mph N/A   Clear